SCP
0 0 0 0 0 0 0 0 0 0 0 0 0 0 0 0 0 0 0 0 0 0 0 0 0 0 0 0 0 0 0 0 0 0 0 0 0 0 0 0 0 0 0 0 0 0 0 0 0 0 0 0 0 0
0 0 0 0 0 0 0 0 0 0 0 0 0 0 0 0 0 0 0 0 0 0 0 0 0 0 0 0 0 0 0 0 0 0 0 0 0 0 0 0 0 0 0 0 0 0 0 0 0 0 0 0 0 0
0 0 0 0 0 0 0 0 0 0 0 0 0 0 0 0 0 0 0 0 0 0 0 0 0 0 0 0 0 0 0 0 0 0 0 0 0 0 0 0 0 0 0 0 0 0 0 0 0 0 0 0 0 0
0 0 0 0 0 0 0 0 0 0 0 0 0 0 0 0 0 0 0 0 0 0 0 0 0 0 0 0 0 0 0 0 0 0 0 0 0 0 0 0 0 0 0 0 0 0 0 0 0 0 0 0 0 0
0 0 0 0 0 0 0 0 0 0 0 0 0 0 0 0 0 0 0 0 0 0 0 0 0 0 0 0 0 0 0 0 0 0 0 0 0 0 0 0 0 0 0 0 0 0 0 0 0 0 0 0 0 0
0 -0 0 0 0 0 0 0 0 0 0 0 0 0 0 0 0 0 0 0 0 0 0 0 0 0 0 0 0 0 0 0 0 0 0 0 0 0 0 0 0 0 0 0 0 0 0 0 0 0 0 0 0 0
0 0 0 0 0 0 0 0 0 -0 -0 -0 0 0 0 0 0 0 0 0 0 0 0 0 0 0 0 0 0 0 0 0 0 0 0 0 0 0 0 0 0 0 0 0 0 0 0 0 0 0 0 0 0 0
0 0 0 0 0 0 0 0 0 -0 -0 -0 0 0 0 0 0 0 0 0 0 -0 -0 0 0 0 0 0 0 0 0 0 0 0 0 0 0 0 0 0 0 0 0 0 0 0 0 0 0 0 0 0 0 0
0 0 0 0 0 0 0 0 0 0 0 -0 0 0 0 0 0 0 0 0 0 0 0 0 0 0 0 0 0 0 0 0 0 0 0 0 0 0 0 0 0 0 0 0 0 0 0 0 0 0 0 0 0 0
0 0 0 0 0 0 0 0 0 0 0 0 0 0 0 -0 0 0 0 0 0 0 0 0 0 0 0 0 0 0 0 0 0 0 0 0 0 0 0 0 0 0 0 0 0 0 0 0 0 0 0 0 0 0
0 0 0 0 0 0 0 0 0 0 0 0 0 0 0 0 -0 0 0 0 0 0 0 0 0 0 0 0 0 0 0 0 0 0 0 0 0 0 0 0 0 0 0 0 0 0 0 0 0 0 0 0 0 0
-0 -0 -0 0 0 0 0 0 -0 0 0 0 0 0 0 0 0 0 0 0 0 0 0 0 0 0 0 0 0 0 0 0 0 0 0 0 0 0 0 0 0 0 0 0 0 0 0 0 0 0 0 0 0 0
0 0 0 0 0 0 0 0 0 0 0 0 0 0 0 0 0 0 0 0 0 0 0 0 0 0 0 0 0 0 0 0 0 0 0 0 0 0 0 0 0 0 0 0 0 0 0 0 0 0 0 0 0 0
0 0 0 0 0 0 0 0 0 0 0 0 0 0 0 0 0 0 -0 -0 0 0 0 0 0 0 0 0 0 0 0 0 0 0 0 0 0 0 0 0 0 0 0 0 0 0 0 0 0 0 0 0 0 0
0 0 0 0 0 0 0 -0 0 0 0 0 0 0 0 0 -0 -0 -0 -0 -0 -0 0 0 0 0 0 0 0 0 0 0 0 0 0 0 0 0 0 0 0 0 0 0 0 0 0 0 0 0 0 0 0 0
-0 -0 0 0 0 0 0 0 0 0 0 0 0 0 0 0 0 -0 -0 -0 0 0 0 0 0 0 0 0 0 0 0 0 0 0 0 0 0 0 0 0 0 0 0 0 0 0 0 0 0 0 0 0 0 0
0 0 0 0 0 -0 0 0 0 0 0 0 0 0 0 0 0 0 -0 -0 -0 0 0 0 0 0 0 0 0 0 0 0 0 0 0 0 0 0 0 0 0 0 0 0 0 0 0 0 0 0 0 0 0 0
0 0 0 -0 -0 0 0 0 0 0 0 0 0 0 0 0 -0 -0 -0 -0 -0 0 0 0 0 0 0 0 0 0 0 0 0 0 0 0 0 0 0 0 0 0 0 0 0 0 0 0 0 0 0 0 0 0
0 0 0 0 -0 0 0 0 0 0 0 0 0 0 0 0 -0 -0 -0 0 0 0 0 0 0 0 0 0 0 0 0 0 0 0 0 0 0 0 0 0 0 0 0 0 0 0 0 0 0 0 0 0 0 0
0 0 0 0 0 0 0 0 0 0 0 0 -0 0 0 -0 -0 0 0 0 0 0 0 0 0 0 0 0 0 0 0 -0 -0 0 0 0 0 0 0 0 0 0 0 0 0 0 0 0 0 0 0 0 0 0
0 0 0 0 0 0 0 0 0 0 0 0 -0 -0 0 -0 -0 0 0 0 0 0 0 0 0 0 0 0 0 0 0 0 0 0 0 0 0 0 0 0 0 0 0 0 0 0 0 0 0 0 0 0 0 0
0 0 0 0 0 0 0 0 0 0 0 -0 -0 -0 0 -0 0 0 0 0 0 0 0 0 0 0 0 0 0 0 0 0 0 0 0 0 0 0 0 0 0 0 0 0 0 0 0 0 0 0 0 0 0 0
0 -0 0 -0 -0 -0 0 0 0 0 0 0 0 0 0 0 0 0 0 0 0 0 0 0 0 0 0 0 0 0 0 0 0 0 0 0 0 0 0 0 0 0 0 0 0 0 0 0 0 0 0 0 0 0
-0 -0 -0 -0 0 0 0 0 0 0 0 0 0 0 0 0 0 0 0 0 0 0 0 0 0 0 0 0 0 0 0 0 0 0 0 0 0 0 0 0 0 0 0 0 0 0 0 0 0 0 0 0 0 0
-0 0 -0 0 -0 -0 -0 0 -0 -0 -0 0 0 0 0 0 0 0 0 0 0 0 0 -0 0 0 0 0 0 0 0 0 0 0 0 0 0 0 0 0 0 0 0 0 0 0 0 0 0 0 0 0 0 0
-0 -0 -0 -0 -0 0 -0 -0 -0 -0 0 0 0 0 0 0 0 0 0 0 0 0 0 0 0 0 0 0 0 0 0 0 0 0 0 0 0 0 0 0 0 0 0 0 0 0 0 0 0 0 0 0 0 0
-0 0 0 0 -0 -0 -0 0 0 -0 0 -0 0 0 0 0 0 0 0 0 0 0 0 0 0 0 0 0 0 0 0 0 0 0 0 0 0 0 0 0 0 0 0 0 0 0 0 0 0 0 0 0 0 0
0 -0 -0 -0 -0 0 -0 0 -0 -0 -0 -0 0 0 0 0 0 0 0 0 0 0 0 0 0 0 0 0 0 0 0 0 0 0 0 0 0 0 0 0 0 0 0 0 0 0 0 0 0 0 0 0 0 0
0 -0 0 -0 -0 -0 -0 -0 -0 0 -0 -0 0 0 0 0 0 0 0 0 0 0 0 0 0 0 0 0 0 0 0 0 0 0 0 0 0 0 0 0 0 0 0 0 0 0 0 0 0 0 0 0 0 0
0 0 0 -0 -0 -0 -0 0 0 0 0 0 -0 0 0 0 0 0 0 0 0 0 0 0 0 0 0 0 0 0 0 0 0 0 0 0 0 0 0 0 0 0 0 0 0 0 0 0 0 0 0 0 0 0
0 0 0 -0 -0 -0 -0 0 0 0 0 0 0 0 0 0 0 0 0 0 0 0 0 0 0 0 0 0 0 0 0 0 0 0 0 0 0 0 0 0 0 0 0 0 0 0 0 0 0 0 0 0 0 0
0 0 0 0 -0 -0 0 0 0 0 0 0 0 0 0 0 0 0 0 0 0 0 0 0 0 0 0 0 0 -0 0 0 0 0 0 0 0 0 0 0 0 0 0 0 0 0 0 0 0 0 0 0 0 0
0 0 0 0 0 0 0 0 0 0 0 0 0 0 0 0 0 -0 -0 -0 -0 -0 0 0 0 0 0 -0 0 0 -0 0 0 0 0 0 0 0 0 0 0 0 0 0 0 0 0 0 0 0 0 0 0 0
Wind_Speed_500mb
45 42 40 40 41 41 40 42 45 48 51 57 60 53 41 40 51 67 80 70 96 76 75 77 94 67 32 70 31 17 13 5 6 24 16 15 15 20 12 12 24 23 23 12 12 9 32 36 19 24 9 9 28 32
49 48 49 44 42 43 43 42 41 42 46 52 59 68 58 60 43 37 62 78 83 78 69 69 125 128 117 105 82 58 24 16 30 14 12 11 10 9 20 21 5 15 21 19 27 22 5 75 19 76 30 30 28 44
56 55 54 54 52 48 48 48 46 47 46 47 53 60 61 61 60 59 64 54 54 58 72 94 70 104 120 126 125 54 35 57 33 42 14 10 10 11 14 15 11 11 18 10 8 42 45 54 57 40 50 39 49 45
58 57 57 58 58 52 55 54 53 54 53 55 56 56 60 67 63 61 71 65 59 36 10 24 61 80 100 127 117 126 99 81 73 59 9 10 11 19 15 9 24 16 30 32 21 43 7 53 71 59 65 51 51 43
62 60 59 62 60 53 53 53 50 54 57 57 57 59 60 62 70 67 76 83 81 51 10 10 24 54 72 82 117 113 105 77 50 16 12 19 9 10 3 7 15 19 28 23 25 31 25 23 77 87 76 78 57 57
59 59 57 59 59 56 53 51 52 53 55 57 59 59 58 60 60 69 54 72 90 95 31 13 20 67 93 84 86 113 124 115 63 30 17 18 28 24 16 17 23 59 77 83 52 43 46 44 39 79 87 83 68 66
57 56 58 62 59 54 56 54 53 54 55 57 59 59 59 59 56 64 27 16 11 41 21 14 19 61 86 80 88 88 85 70 73 26 19 16 20 33 12 29 35 82 95 82 73 47 23 46 36 66 79 78 70 69
53 52 57 58 57 57 58 59 59 58 55 58 58 58 60 62 62 72 93 86 76 57 20 8 8 12 31 42 25 68 62 69 56 28 4 15 11 8 17 36 72 98 61 65 72 79 60 65 42 63 61 64 78 89
56 54 54 55 57 60 60 63 63 60 56 55 55 59 65 69 56 69 64 62 73 54 8 7 11 23 23 13 5 17 18 15 21 15 15 19 11 15 23 49 51 82 59 42 60 68 57 68 70 61 64 73 80 86
55 56 57 57 59 60 63 65 61 57 53 55 54 27 14 24 39 42 49 37 32 43 46 25 41 23 17 2 5 4 5 6 7 11 18 8 7 9 44 47 41 62 66 71 60 33 55 56 63 68 81 77 84 83
54 54 54 57 58 60 57 53 49 50 49 45 15 19 49 51 54 16 9 11 13 11 25 39 50 38 29 6 5 6 4 3 6 7 16 9 7 30 54 43 45 52 76 86 88 104 102 93 85 78 82 84 83 78
49 52 52 53 55 55 52 50 49 47 47 34 27 43 45 16 16 11 10 10 14 14 9 28 39 60 16 18 6 10 8 5 9 7 4 5 9 15 54 64 66 64 77 84 88 84 89 80 76 86 89 89 80 70
44 48 48 48 50 53 53 53 53 46 40 33 14 11 10 11 15 13 14 10 7 4 7 9 6 24 18 17 5 9 15 13 10 9 7 8 8 18 43 63 81 85 84 91 81 87 72 66 69 82 92 82 75 69
38 42 47 50 54 53 52 54 46 40 26 15 9 12 10 11 11 7 10 11 13 12 7 10 10 9 7 9 5 8 3 3 9 7 13 7 15 45 53 55 58 65 75 76 78 68 54 67 78 82 83 78 74 68
43 48 50 51 47 46 52 49 38 36 19 14 12 11 11 14 23 24 22 15 34 34 20 4 3 6 3 5 5 8 3 8 9 10 6 7 40 27 41 47 53 56 58 62 66 59 62 62 67 67 66 63 63 63
46 48 33 22 32 42 27 19 22 21 10 14 13 10 11 11 23 23 15 17 48 31 22 7 6 6 7 9 8 13 16 14 3 6 13 38 40 22 21 37 42 48 59 67 60 70 66 63 65 63 59 58 60 59
43 34 40 40 43 43 27 19 12 12 13 8 9 38 46 18 21 25 33 32 32 21 8 5 8 6 8 5 7 9 6 8 13 25 35 37 36 27 6 26 37 45 54 64 64 62 63 61 60 59 59 59 56 55
45 49 40 38 47 29 24 15 11 11 11 23 7 16 8 16 15 15 38 45 31 9 2 5 10 10 10 6 6 10 9 39 21 36 44 45 32 16 12 26 34 43 51 53 54 58 59 63 64 60 54 54 54 55
48 43 33 40 36 5 7 12 14 7 10 3 17 25 8 17 28 39 45 31 19 22 15 10 15 9 8 7 11 16 38 33 36 44 37 31 23 18 23 29 39 47 52 55 56 59 57 53 50 50 51 54 57 61
35 25 30 28 17 8 5 4 7 7 4 8 13 18 16 15 29 34 55 59 32 17 16 11 7 7 12 37 41 43 46 45 42 35 16 27 24 23 29 36 43 45 50 51 50 47 46 46 44 46 47 51 56 63
21 13 16 8 0 3 7 11 7 7 12 8 17 5 13 14 30 33 30 41 24 9 8 14 24 41 38 37 34 30 28 27 28 11 9 16 25 32 37 39 40 43 47 47 48 46 42 44 48 46 47 49 48 49
10 14 6 7 9 6 8 27 11 18 12 12 8 11 8 6 7 19 21 33 8 14 30 35 48 46 45 40 32 25 21 15 15 23 23 23 31 38 43 39 38 44 43 40 38 42 42 41 42 42 42 43 43 45
6 8 12 26 9 26 9 24 13 18 9 10 7 8 7 6 11 18 9 16 14 38 48 45 40 24 30 27 29 33 35 31 39 40 39 39 42 45 46 45 43 46 47 42 37 40 43 41 39 40 40 41 42 42
14 15 20 16 27 10 19 13 18 12 10 9 8 8 8 7 10 10 8 8 39 49 56 57 55 43 46 53 57 50 45 42 45 48 46 47 54 54 50 48 45 43 40 38 35 37 38 38 38 37 36 36 35 33
14 23 19 17 22 13 15 12 15 12 9 11 10 9 8 13 8 9 7 17 47 51 60 58 53 51 47 47 51 51 49 52 53 53 50 50 51 52 55 51 49 46 35 30 33 32 33 31 29 26 25 25 27 28
17 15 11 11 9 10 10 11 11 13 9 11 10 9 10 7 10 9 7 27 33 42 53 51 50 46 54 58 60 58 49 50 55 65 56 49 50 50 51 52 49 46 39 31 27 27 27 26 24 24 24 24 22 23
13 8 14 23 11 10 8 10 12 8 10 16 10 13 7 11 9 4 16 28 28 35 34 33 36 38 39 44 52 59 63 65 71 68 60 59 59 56 53 57 55 47 38 35 34 30 26 26 24 22 20 19 17 16
14 16 12 23 12 20 7 8 10 11 8 16 8 14 7 8 4 9 12 23 21 21 27 35 41 43 42 40 39 37 41 48 57 59 58 57 57 56 53 49 43 33 31 31 29 26 23 20 19 16 13 12 11 11
12 33 13 12 10 12 10 10 11 13 24 4 5 5 5 8 9 11 15 16 19 23 30 36 41 47 49 51 52 52 48 46 48 54 55 54 53 49 43 37 34 31 30 26 23 20 19 16 13 10 6 3 3 4
19 34 8 10 9 11 14 17 21 32 36 31 21 28 23 24 25 20 21 24 29 36 37 38 39 42 46 48 49 49 50 48 48 45 44 42 37 32 29 28 27 26 25 22 20 17 13 11 8 5 3 6 9 11
24 16 12 14 6 10 11 13 22 28 32 35 34 28 13 8 19 23 22 23 23 22 23 27 29 32 32 32 31 30 33 32 31 28 25 24 22 20 19 19 18 18 17 16 16 15 16 17 19 20 22 23 24 27
22 17 4 6 3 11 10 6 6 5 7 8 12 10 6 4 5 4 7 9 8 12 18 20 21 23 25 26 27 27 28 29 28 25 23 22 24 25 25 25 26 26 26 26 27 28 29 31 33 35 37 38 38 39
7 13 14 7 12 11 21 16 14 6 8 6 8 6 4 2 4 5 8 8 4 6 9 14 17 18 17 19 24 26 30 33 33 31 30 30 30 31 31 29 29 30 30 30 30 31 31 33 34 35 37 38 40 40
Wind_Direction_500mb
286 291 291 292 290 293 297 296 295 288 287 285 277 270 263 256 261 257 267 259 251 273 249 218 223 219 205 209 215 162 120 194 167 218 223 213 217 204 175 184 175 167 168 193 204 212 260 141 129 188 205 152 171 177
282 283 287 288 286 287 293 298 295 298 293 284 284 279 284 276 266 280 277 267 259 263 265 272 237 232 219 219 213 193 205 160 195 195 204 210 210 172 179 220 160 192 187 178 192 211 197 179 192 204 177 168 180 182
274 277 279 282 283 280 283 287 291 295 296 299 291 284 283 279 285 276 288 283 287 265 269 260 257 249 238 231 225 224 215 217 188 201 183 208 213 155 177 217 138 241 192 221 127 244 229 206 219 205 196 187 187 187
272 274 274 275 280 283 281 280 283 285 289 291 294 293 287 278 280 281 279 280 275 279 253 254 247 255 247 231 228 227 225 215 222 200 198 182 203 188 197 212 196 181 157 207 242 266 8 230 219 216 208 201 195 195
272 271 271 272 277 283 283 280 285 288 289 285 289 286 293 288 276 278 274 271 266 258 295 282 251 238 236 239 227 225 225 216 198 189 206 217 185 168 176 143 192 193 195 191 225 226 205 242 212 211 209 205 203 202
266 267 265 270 275 280 284 279 280 286 288 286 287 289 286 293 282 276 286 272 261 262 257 260 258 253 257 251 240 231 229 230 212 211 218 214 219 203 186 201 221 220 223 221 238 227 218 222 232 211 206 210 213 210
273 271 266 267 272 276 280 280 279 283 285 285 287 288 288 294 277 253 252 252 248 298 267 249 246 244 248 248 236 238 236 230 226 220 229 206 198 203 216 228 212 232 233 229 226 205 179 190 192 199 206 213 214 211
282 275 272 272 272 278 282 282 280 278 283 286 285 289 289 288 287 268 260 267 269 285 255 247 289 312 219 212 213 214 220 224 228 233 156 217 172 219 229 219 235 243 237 220 210 209 214 208 193 187 193 206 209 208
278 281 276 275 277 278 281 284 281 278 279 283 287 287 292 286 272 268 267 274 261 242 247 260 206 255 190 196 212 174 217 207 196 218 212 164 170 212 207 215 226 231 215 198 180 196 198 186 181 186 195 203 201 197
270 275 273 273 276 280 281 282 278 275 278 283 288 293 258 271 286 278 278 247 240 233 228 241 246 258 197 212 170 141 203 238 218 210 138 220 235 206 228 222 219 219 202 186 159 155 167 179 192 194 197 203 202 197
273 275 275 275 277 281 280 282 283 280 281 280 250 245 276 280 304 252 228 236 197 196 188 219 225 230 238 172 165 225 222 223 247 219 185 208 237 222 223 216 216 208 201 201 203 197 189 193 197 197 199 201 193 200
275 277 278 279 280 280 281 278 276 272 267 261 264 282 288 253 226 217 218 220 222 209 212 198 213 215 188 174 137 171 198 212 249 160 257 259 256 225 197 202 204 199 200 199 200 195 193 204 208 198 200 191 195 200
278 277 281 285 287 284 280 274 268 266 271 275 252 231 211 245 234 241 222 263 270 265 217 158 171 187 157 187 209 181 196 206 140 189 225 234 263 277 208 194 197 206 202 197 186 190 197 204 200 198 191 195 200 200
298 291 290 290 287 285 281 273 270 253 243 209 198 246 186 253 239 215 322 305 290 274 291 242 147 162 153 188 149 172 352 77 202 225 226 236 222 222 210 199 189 186 187 183 190 190 200 198 194 197 203 205 202 198
312 304 297 292 288 294 281 265 250 239 225 206 208 231 234 233 266 286 307 303 311 297 231 206 149 147 142 124 118 85 108 227 219 233 241 323 321 221 189 190 187 182 179 179 181 181 193 189 186 188 195 199 197 195
321 311 321 310 286 299 302 253 231 229 214 222 242 257 269 297 271 275 281 285 291 255 234 223 195 179 182 142 178 197 164 210 244 357 336 346 346 24 169 172 181 187 186 187 186 188 185 182 183 184 183 187 189 193
320 318 304 308 308 300 251 250 221 210 223 238 257 236 247 255 263 278 288 285 283 252 231 226 213 192 121 194 157 8 26 5 335 333 345 352 357 1 96 171 181 188 189 184 179 178 182 181 181 180 180 179 182 182
303 313 313 307 305 265 217 217 211 234 240 235 247 265 326 30 343 352 335 331 338 263 211 37 356 30 20 16 34 5 336 329 336 355 0 6 8 27 123 154 160 166 166 167 171 173 173 175 177 176 177 175 172 169
313 314 296 294 309 198 193 201 210 242 226 351 331 336 24 94 45 23 8 353 347 33 69 40 51 35 353 4 331 321 323 333 323 327 349 9 22 60 98 124 137 143 147 151 157 161 166 170 172 170 170 169 168 164
313 297 288 301 285 207 222 215 297 296 300 341 357 8 62 44 13 12 17 15 20 50 46 44 33 335 311 310 310 304 309 323 325 326 359 25 46 82 100 115 119 128 134 138 143 148 150 150 155 162 164 165 168 167
315 298 315 301 191 54 73 358 319 353 324 353 352 50 101 55 30 15 20 7 54 34 23 354 325 319 337 340 332 324 336 351 343 322 338 41 65 86 96 101 113 121 125 129 132 132 141 147 149 154 158 161 165 165
326 337 344 40 53 56 80 9 315 330 324 339 24 55 42 31 19 27 31 34 56 21 353 325 323 336 348 350 2 16 22 50 79 84 84 93 84 85 83 89 103 103 107 111 120 127 130 136 142 146 151 151 156 162
22 27 46 24 35 25 356 6 29 13 21 355 27 43 47 45 41 34 67 39 17 351 349 351 3 20 15 32 54 61 65 75 81 83 86 88 90 91 92 92 99 105 107 107 116 120 124 131 137 143 149 154 160 163
49 49 28 31 17 0 344 10 6 359 13 20 16 47 38 36 61 65 69 12 347 354 7 14 18 29 44 50 45 52 60 74 81 82 82 85 83 81 86 89 92 95 98 106 113 118 125 133 140 148 153 158 161 168
74 10 30 358 10 360 18 9 356 12 40 349 21 30 21 21 61 58 27 347 348 357 6 19 24 28 32 43 55 60 68 73 77 79 78 82 87 91 88 87 86 84 85 97 106 112 117 123 130 138 147 155 162 160
66 14 42 357 348 24 348 8 23 3 357 12 27 335 7 59 61 51 3 338 343 357 9 9 19 27 39 45 53 55 60 77 82 77 73 75 80 83 86 86 83 77 78 78 88 104 113 121 127 134 141 147 153 158
44 339 4 18 360 353 44 29 21 34 25 12 354 347 24 63 59 23 351 360 352 7 21 33 45 52 56 63 67 69 71 73 72 75 77 78 78 78 80 81 78 78 81 86 88 89 99 110 118 124 134 139 151 159
51 37 3 337 38 24 64 24 28 18 359 343 347 23 64 30 61 348 352 5 19 41 58 67 69 68 69 69 70 74 77 79 83 83 80 78 75 74 72 73 76 80 83 86 87 91 99 105 113 124 135 149 169 186
23 347 358 11 21 44 42 24 13 345 338 339 100 62 87 57 29 34 38 53 73 79 80 79 79 82 81 79 78 77 79 81 79 75 72 68 68 65 67 69 70 71 72 72 79 85 84 83 87 90 98 120 191 228
346 2 53 29 49 44 11 37 26 41 57 72 88 99 83 72 60 70 83 92 91 84 81 79 77 75 71 70 67 65 62 60 59 58 58 57 55 55 54 54 53 53 53 52 51 50 45 43 44 23 335 296 282 276
353 10 54 43 67 23 35 66 69 63 68 71 78 79 90 95 68 63 81 91 92 90 88 77 69 65 61 60 56 57 53 44 38 33 30 26 19 15 12 8 2 358 352 345 336 329 321 313 307 301 296 292 289 286
16 27 70 61 340 4 4 35 29 56 35 35 28 30 42 45 55 79 80 102 92 74 58 48 38 35 33 28 23 14 7 0 356 352 348 343 336 331 329 326 322 317 314 309 304 300 296 293 291 289 288 287 286 285
26 26 38 33 7 9 1 2 25 26 47 50 40 40 39 28 206 171 151 145 115 51 31 13 3 358 351 352 352 341 339 337 334 331 328 325 321 317 314 314 311 309 308 308 307 304 302 300 297 295 293 292 290 289
Wind_Speed_850mb
45 42 40 40 41 41 40 42 45 48 51 57 60 53 41 40 51 67 80 70 96 76 75 77 94 67 32 70 31 17 13 5 6 24 16 15 15 20 12 12 24 23 23 12 12 9 32 36 19 24 9 9 28 32
49 48 49 44 42 43 43 42 41 42 46 52 59 68 58 60 43 37 62 78 83 78 69 69 125 128 117 105 82 58 24 16 30 14 12 11 10 9 20 21 5 15 21 19 27 22 5 75 19 76 30 30 28 44
56 55 54 54 52 48 48 48 46 47 46 47 53 60 61 61 60 59 64 54 54 58 72 94 70 104 120 126 125 54 35 57 33 42 14 10 10 11 14 15 11 11 18 10 8 42 45 54 57 40 50 39 49 45
58 57 57 58 58 52 55 54 53 54 53 55 56 56 60 67 63 61 71 65 59 36 10 24 61 80 100 127 117 126 99 81 73 59 9 10 11 19 15 9 24 16 30 32 21 43 7 53 71 59 65 51 51 43
62 60 59 62 60 53 53 53 50 54 57 57 57 59 60 62 70 67 76 83 81 51 10 10 24 54 72 82 117 113 105 77 50 16 12 19 9 10 3 7 15 19 28 23 25 31 25 23 77 87 76 78 57 57
59 59 57 59 59 56 53 51 52 53 55 57 59 59 58 60 60 69 54 72 90 95 31 13 20 67 93 84 86 113 124 115 63 30 17 18 28 24 16 17 23 59 77 83 52 43 46 44 39 79 87 83 68 66
57 56 58 62 59 54 56 54 53 54 55 57 59 59 59 59 56 64 27 16 11 41 21 14 19 61 86 80 88 88 85 70 73 26 19 16 20 33 12 29 35 82 95 82 73 47 23 46 36 66 79 78 70 69
53 52 57 58 57 57 58 59 59 58 55 58 58 58 60 62 62 72 93 86 76 57 20 8 8 12 31 42 25 68 62 69 56 28 4 15 11 8 17 36 72 98 61 65 72 79 60 65 42 63 61 64 78 89
56 54 54 55 57 60 60 63 63 60 56 55 55 59 65 69 56 69 64 62 73 54 8 7 11 23 23 13 5 17 18 15 21 15 15 19 11 15 23 49 51 82 59 42 60 68 57 68 70 61 64 73 80 86
55 56 57 57 59 60 63 65 61 57 53 55 54 27 14 24 39 42 49 37 32 43 46 25 41 23 17 2 5 4 5 6 7 11 18 8 7 9 44 47 41 62 66 71 60 33 55 56 63 68 81 77 84 83
54 54 54 57 58 60 57 53 49 50 49 45 15 19 49 51 54 16 9 11 13 11 25 39 50 38 29 6 5 6 4 3 6 7 16 9 7 30 54 43 45 52 76 86 88 104 102 93 85 78 82 84 83 78
49 52 52 53 55 55 52 50 49 47 47 34 27 43 45 16 16 11 10 10 14 14 9 28 39 60 16 18 6 10 8 5 9 7 4 5 9 15 54 64 66 64 77 84 88 84 89 80 76 86 89 89 80 70
44 48 48 48 50 53 53 53 53 46 40 33 14 11 10 11 15 13 14 10 7 4 7 9 6 24 18 17 5 9 15 13 10 9 7 8 8 18 43 63 81 85 84 91 81 87 72 66 69 82 92 82 75 69
38 42 47 50 54 53 52 54 46 40 26 15 9 12 10 11 11 7 10 11 13 12 7 10 10 9 7 9 5 8 3 3 9 7 13 7 15 45 53 55 58 65 75 76 78 68 54 67 78 82 83 78 74 68
43 48 50 51 47 46 52 49 38 36 19 14 12 11 11 14 23 24 22 15 34 34 20 4 3 6 3 5 5 8 3 8 9 10 6 7 40 27 41 47 53 56 58 62 66 59 62 62 67 67 66 63 63 63
46 48 33 22 32 42 27 19 22 21 10 14 13 10 11 11 23 23 15 17 48 31 22 7 6 6 7 9 8 13 16 14 3 6 13 38 40 22 21 37 42 48 59 67 60 70 66 63 65 63 59 58 60 59
43 34 40 40 43 43 27 19 12 12 13 8 9 38 46 18 21 25 33 32 32 21 8 5 8 6 8 5 7 9 6 8 13 25 35 37 36 27 6 26 37 45 54 64 64 62 63 61 60 59 59 59 56 55
45 49 40 38 47 29 24 15 11 11 11 23 7 16 8 16 15 15 38 45 31 9 2 5 10 10 10 6 6 10 9 39 21 36 44 45 32 16 12 26 34 43 51 53 54 58 59 63 64 60 54 54 54 55
48 43 33 40 36 5 7 12 14 7 10 3 17 25 8 17 28 39 45 31 19 22 15 10 15 9 8 7 11 16 38 33 36 44 37 31 23 18 23 29 39 47 52 55 56 59 57 53 50 50 51 54 57 61
35 25 30 28 17 8 5 4 7 7 4 8 13 18 16 15 29 34 55 59 32 17 16 11 7 7 12 37 41 43 46 45 42 35 16 27 24 23 29 36 43 45 50 51 50 47 46 46 44 46 47 51 56 63
21 13 16 8 0 3 7 11 7 7 12 8 17 5 13 14 30 33 30 41 24 9 8 14 24 41 38 37 34 30 28 27 28 11 9 16 25 32 37 39 40 43 47 47 48 46 42 44 48 46 47 49 48 49
10 14 6 7 9 6 8 27 11 18 12 12 8 11 8 6 7 19 21 33 8 14 30 35 48 46 45 40 32 25 21 15 15 23 23 23 31 38 43 39 38 44 43 40 38 42 42 41 42 42 42 43 43 45
6 8 12 26 9 26 9 24 13 18 9 10 7 8 7 6 11 18 9 16 14 38 48 45 40 24 30 27 29 33 35 31 39 40 39 39 42 45 46 45 43 46 47 42 37 40 43 41 39 40 40 41 42 42
14 15 20 16 27 10 19 13 18 12 10 9 8 8 8 7 10 10 8 8 39 49 56 57 55 43 46 53 57 50 45 42 45 48 46 47 54 54 50 48 45 43 40 38 35 37 38 38 38 37 36 36 35 33
14 23 19 17 22 13 15 12 15 12 9 11 10 9 8 13 8 9 7 17 47 51 60 58 53 51 47 47 51 51 49 52 53 53 50 50 51 52 55 51 49 46 35 30 33 32 33 31 29 26 25 25 27 28
17 15 11 11 9 10 10 11 11 13 9 11 10 9 10 7 10 9 7 27 33 42 53 51 50 46 54 58 60 58 49 50 55 65 56 49 50 50 51 52 49 46 39 31 27 27 27 26 24 24 24 24 22 23
13 8 14 23 11 10 8 10 12 8 10 16 10 13 7 11 9 4 16 28 28 35 34 33 36 38 39 44 52 59 63 65 71 68 60 59 59 56 53 57 55 47 38 35 34 30 26 26 24 22 20 19 17 16
14 16 12 23 12 20 7 8 10 11 8 16 8 14 7 8 4 9 12 23 21 21 27 35 41 43 42 40 39 37 41 48 57 59 58 57 57 56 53 49 43 33 31 31 29 26 23 20 19 16 13 12 11 11
12 33 13 12 10 12 10 10 11 13 24 4 5 5 5 8 9 11 15 16 19 23 30 36 41 47 49 51 52 52 48 46 48 54 55 54 53 49 43 37 34 31 30 26 23 20 19 16 13 10 6 3 3 4
19 34 8 10 9 11 14 17 21 32 36 31 21 28 23 24 25 20 21 24 29 36 37 38 39 42 46 48 49 49 50 48 48 45 44 42 37 32 29 28 27 26 25 22 20 17 13 11 8 5 3 6 9 11
24 16 12 14 6 10 11 13 22 28 32 35 34 28 13 8 19 23 22 23 23 22 23 27 29 32 32 32 31 30 33 32 31 28 25 24 22 20 19 19 18 18 17 16 16 15 16 17 19 20 22 23 24 27
22 17 4 6 3 11 10 6 6 5 7 8 12 10 6 4 5 4 7 9 8 12 18 20 21 23 25 26 27 27 28 29 28 25 23 22 24 25 25 25 26 26 26 26 27 28 29 31 33 35 37 38 38 39
7 13 14 7 12 11 21 16 14 6 8 6 8 6 4 2 4 5 8 8 4 6 9 14 17 18 17 19 24 26 30 33 33 31 30 30 30 31 31 29 29 30 30 30 30 31 31 33 34 35 37 38 40 40
Wind_Direction_850mb
286 291 291 292 290 293 297 296 295 288 287 285 277 270 263 256 261 257 267 259 251 273 249 218 223 219 205 209 215 162 120 194 167 218 223 213 217 204 175 184 175 167 168 193 204 212 260 141 129 188 205 152 171 177
282 283 287 288 286 287 293 298 295 298 293 284 284 279 284 276 266 280 277 267 259 263 265 272 237 232 219 219 213 193 205 160 195 195 204 210 210 172 179 220 160 192 187 178 192 211 197 179 192 204 177 168 180 182
274 277 279 282 283 280 283 287 291 295 296 299 291 284 283 279 285 276 288 283 287 265 269 260 257 249 238 231 225 224 215 217 188 201 183 208 213 155 177 217 138 241 192 221 127 244 229 206 219 205 196 187 187 187
272 274 274 275 280 283 281 280 283 285 289 291 294 293 287 278 280 281 279 280 275 279 253 254 247 255 247 231 228 227 225 215 222 200 198 182 203 188 197 212 196 181 157 207 242 266 8 230 219 216 208 201 195 195
272 271 271 272 277 283 283 280 285 288 289 285 289 286 293 288 276 278 274 271 266 258 295 282 251 238 236 239 227 225 225 216 198 189 206 217 185 168 176 143 192 193 195 191 225 226 205 242 212 211 209 205 203 202
266 267 265 270 275 280 284 279 280 286 288 286 287 289 286 293 282 276 286 272 261 262 257 260 258 253 257 251 240 231 229 230 212 211 218 214 219 203 186 201 221 220 223 221 238 227 218 222 232 211 206 210 213 210
273 271 266 267 272 276 280 280 279 283 285 285 287 288 288 294 277 253 252 252 248 298 267 249 246 244 248 248 236 238 236 230 226 220 229 206 198 203 216 228 212 232 233 229 226 205 179 190 192 199 206 213 214 211
282 275 272 272 272 278 282 282 280 278 283 286 285 289 289 288 287 268 260 267 269 285 255 247 289 312 219 212 213 214 220 224 228 233 156 217 172 219 229 219 235 243 237 220 210 209 214 208 193 187 193 206 209 208
278 281 276 275 277 278 281 284 281 278 279 283 287 287 292 286 272 268 267 274 261 242 247 260 206 255 190 196 212 174 217 207 196 218 212 164 170 212 207 215 226 231 215 198 180 196 198 186 181 186 195 203 201 197
270 275 273 273 276 280 281 282 278 275 278 283 288 293 258 271 286 278 278 247 240 233 228 241 246 258 197 212 170 141 203 238 218 210 138 220 235 206 228 222 219 219 202 186 159 155 167 179 192 194 197 203 202 197
273 275 275 275 277 281 280 282 283 280 281 280 250 245 276 280 304 252 228 236 197 196 188 219 225 230 238 172 165 225 222 223 247 219 185 208 237 222 223 216 216 208 201 201 203 197 189 193 197 197 199 201 193 200
275 277 278 279 280 280 281 278 276 272 267 261 264 282 288 253 226 217 218 220 222 209 212 198 213 215 188 174 137 171 198 212 249 160 257 259 256 225 197 202 204 199 200 199 200 195 193 204 208 198 200 191 195 200
278 277 281 285 287 284 280 274 268 266 271 275 252 231 211 245 234 241 222 263 270 265 217 158 171 187 157 187 209 181 196 206 140 189 225 234 263 277 208 194 197 206 202 197 186 190 197 204 200 198 191 195 200 200
298 291 290 290 287 285 281 273 270 253 243 209 198 246 186 253 239 215 322 305 290 274 291 242 147 162 153 188 149 172 352 77 202 225 226 236 222 222 210 199 189 186 187 183 190 190 200 198 194 197 203 205 202 198
312 304 297 292 288 294 281 265 250 239 225 206 208 231 234 233 266 286 307 303 311 297 231 206 149 147 142 124 118 85 108 227 219 233 241 323 321 221 189 190 187 182 179 179 181 181 193 189 186 188 195 199 197 195
321 311 321 310 286 299 302 253 231 229 214 222 242 257 269 297 271 275 281 285 291 255 234 223 195 179 182 142 178 197 164 210 244 357 336 346 346 24 169 172 181 187 186 187 186 188 185 182 183 184 183 187 189 193
320 318 304 308 308 300 251 250 221 210 223 238 257 236 247 255 263 278 288 285 283 252 231 226 213 192 121 194 157 8 26 5 335 333 345 352 357 1 96 171 181 188 189 184 179 178 182 181 181 180 180 179 182 182
303 313 313 307 305 265 217 217 211 234 240 235 247 265 326 30 343 352 335 331 338 263 211 37 356 30 20 16 34 5 336 329 336 355 0 6 8 27 123 154 160 166 166 167 171 173 173 175 177 176 177 175 172 169
313 314 296 294 309 198 193 201 210 242 226 351 331 336 24 94 45 23 8 353 347 33 69 40 51 35 353 4 331 321 323 333 323 327 349 9 22 60 98 124 137 143 147 151 157 161 166 170 172 170 170 169 168 164
313 297 288 301 285 207 222 215 297 296 300 341 357 8 62 44 13 12 17 15 20 50 46 44 33 335 311 310 310 304 309 323 325 326 359 25 46 82 100 115 119 128 134 138 143 148 150 150 155 162 164 165 168 167
315 298 315 301 191 54 73 358 319 353 324 353 352 50 101 55 30 15 20 7 54 34 23 354 325 319 337 340 332 324 336 351 343 322 338 41 65 86 96 101 113 121 125 129 132 132 141 147 149 154 158 161 165 165
326 337 344 40 53 56 80 9 315 330 324 339 24 55 42 31 19 27 31 34 56 21 353 325 323 336 348 350 2 16 22 50 79 84 84 93 84 85 83 89 103 103 107 111 120 127 130 136 142 146 151 151 156 162
22 27 46 24 35 25 356 6 29 13 21 355 27 43 47 45 41 34 67 39 17 351 349 351 3 20 15 32 54 61 65 75 81 83 86 88 90 91 92 92 99 105 107 107 116 120 124 131 137 143 149 154 160 163
49 49 28 31 17 0 344 10 6 359 13 20 16 47 38 36 61 65 69 12 347 354 7 14 18 29 44 50 45 52 60 74 81 82 82 85 83 81 86 89 92 95 98 106 113 118 125 133 140 148 153 158 161 168
74 10 30 358 10 360 18 9 356 12 40 349 21 30 21 21 61 58 27 347 348 357 6 19 24 28 32 43 55 60 68 73 77 79 78 82 87 91 88 87 86 84 85 97 106 112 117 123 130 138 147 155 162 160
66 14 42 357 348 24 348 8 23 3 357 12 27 335 7 59 61 51 3 338 343 357 9 9 19 27 39 45 53 55 60 77 82 77 73 75 80 83 86 86 83 77 78 78 88 104 113 121 127 134 141 147 153 158
44 339 4 18 360 353 44 29 21 34 25 12 354 347 24 63 59 23 351 360 352 7 21 33 45 52 56 63 67 69 71 73 72 75 77 78 78 78 80 81 78 78 81 86 88 89 99 110 118 124 134 139 151 159
51 37 3 337 38 24 64 24 28 18 359 343 347 23 64 30 61 348 352 5 19 41 58 67 69 68 69 69 70 74 77 79 83 83 80 78 75 74 72 73 76 80 83 86 87 91 99 105 113 124 135 149 169 186
23 347 358 11 21 44 42 24 13 345 338 339 100 62 87 57 29 34 38 53 73 79 80 79 79 82 81 79 78 77 79 81 79 75 72 68 68 65 67 69 70 71 72 72 79 85 84 83 87 90 98 120 191 228
346 2 53 29 49 44 11 37 26 41 57 72 88 99 83 72 60 70 83 92 91 84 81 79 77 75 71 70 67 65 62 60 59 58 58 57 55 55 54 54 53 53 53 52 51 50 45 43 44 23 335 296 282 276
353 10 54 43 67 23 35 66 69 63 68 71 78 79 90 95 68 63 81 91 92 90 88 77 69 65 61 60 56 57 53 44 38 33 30 26 19 15 12 8 2 358 352 345 336 329 321 313 307 301 296 292 289 286
16 27 70 61 340 4 4 35 29 56 35 35 28 30 42 45 55 79 80 102 92 74 58 48 38 35 33 28 23 14 7 0 356 352 348 343 336 331 329 326 322 317 314 309 304 300 296 293 291 289 288 287 286 285
26 26 38 33 7 9 1 2 25 26 47 50 40 40 39 28 206 171 151 145 115 51 31 13 3 358 351 352 352 341 339 337 334 331 328 325 321 317 314 314 311 309 308 308 307 304 302 300 297 295 293 292 290 289